Home   Weather   Daneborg   Past weeks
Flag for Greenland

Past Weather in Daneborg, Greenland — Yesterday and Last 2 Weeks

Now
2 °F

Frigid.


Feels Like: -18 °F
Forecast: 6 / -2 °F
Wind: 16 mph from Northeast

Location: Daneborg

Current Time: Apr 4, 2020 at 5:15:37 am

Latest Report: Apr 4, 2020 at 4:00 am


Visibility: N/A

Pressure: 30.37 "Hg

Humidity: 69%

Dew Point: -6 °F

Location of DaneborgLocation

Past Weather in Daneborg — Graph

°F

Daneborg Temperature Yesterday

Maximum temperature yesterday: 12 °F (at 2:00 am)
Minimum temperature yesterday: 4 °F (at 11:00 pm)
Average temperature yesterday: 10 °F

High & Low Weather Summary for the Past Weeks

 TemperatureHumidityPressure
High20 °F (Apr 2, 11:00 am)89% (Mar 21, 5:00 pm)30.45 "Hg (Mar 21, 5:00 pm)
Low-19 °F (Mar 22, 9:00 pm)31% (Mar 28, 11:00 am)29.15 "Hg (Mar 23, 2:00 pm)
Average1 °F63%29.85 "Hg
* Reported Mar 20 2:00 am — Apr 4 3:00 am, Daneborg. Weather by CustomWeather, © 2020

Note: Actual official high and low records may vary slightly from our data, if they occured in-between our weather recording intervals... More about our weather records

Daneborg Weather History for the Previous 24 Hours

Scroll right to see more
 ConditionsComfort  
Time TempWeatherWind HumidityBarometerVisibility
3:00 am
Sat, Apr 4
1 °FFrigid.16 mph73%30.36 "HgN/A
2:00 am2 °FFrigid.21 mph69%30.35 "HgN/A
1:00 am2 °FFrigid.24 mph73%30.34 "HgN/A
12:00 am2 °FFrigid.22 mph77%30.32 "HgN/A
11:00 pm
Fri, Apr 3
4 °FFrigid.26 mph78%30.28 "HgN/A
10:00 pm6 °FFrigid.20 mph74%30.25 "HgN/A
9:00 pm9 °FFrigid.15 mph75%30.24 "HgN/A
8:00 pm10 °FFrigid.13 mph73%30.22 "HgN/A
7:00 pm9 °FFrigid.9 mph77%30.22 "HgN/A
6:00 pm10 °FFrigid.8 mph71%30.21 "HgN/A
5:00 pm11 °FCold.12 mph70%30.21 "HgN/A
4:00 pm11 °FCold.10 mph71%30.21 "HgN/A
3:00 pm12 °FCold.13 mph70%30.21 "HgN/A
2:00 pm12 °FCold.12 mph68%30.21 "HgN/A
1:00 pm12 °FCold.14 mph66%30.22 "HgN/A
12:00 pm12 °FCold.8 mph80%30.22 "HgN/A
11:00 am11 °FCold.9 mph80%30.22 "HgN/A
10:00 am11 °FCold.10 mph69%30.22 "HgN/A
9:00 am11 °FCold.7 mph62%30.22 "HgN/A
8:00 am11 °FCold.12 mph60%30.22 "HgN/A
7:00 am10 °FFrigid.14 mph70%30.23 "HgN/A
6:00 am10 °FFrigid.15 mph59%30.22 "HgN/A
5:00 am10 °FFrigid.20 mph62%30.20 "HgN/A
Weather by CustomWeather, © 2020

See weather overview

Advertising